COSMOS 2187

Satellite information

Favourite Embed

Satellite Type and Status

PAYLOADIN ORBIT

Key statistics

Satellite COSMOS 2187 at a glance.

Uptime

12248

Days in orbit

Revolutions

≈ 12.6

Per day

Orbit

LEO

Low Earth Orbit

Inclination

74.0

Latest

Satellite identification and parameters

Extended collection of information and parameters for COSMOS 2187.

Object identification

Identified? True

Debris? False

Object name: COSMOS 2187

International designator: 1992-030A

Object number (NORAD): 21976

Object ID (CCSDS): 21976

Country: COMMONWEALTH OF INDEPENDENT STATES (CIS)

Current information (Y/N): Y

RCS size: MEDIUM

Orbital parameters

Period: 114.674 minutes

Inclination: 74.0043 deg

SMA: 7818.741 km

Apoapsis: 1480.718 km

Periapsis: 1400.494 km

RAAN: 358.2354 deg

Eccentricy: 0.00513023

Argument of periapsis: 261.6554 deg

Mean anomaly: 109.2588 deg

Mean motion: 12.55733601 rev/day

Mean motion (dot): 0.0 rev/day2

B* drag term: 0.00009874878 1/REarth

Two-line elements (TLE)

Creation date: Dec. 14, 2025, 6:24 p.m.

Reference frame: TEME

Reference center: EARTH

Epoch: Dec. 14, 2025, 7:08 a.m. UTC

TLE line 0: 0 COSMOS 2187

TLE line 1: 1 21976U 92030A 25348.29746069 .00000000 00000-0 98749-4 0 9995

TLE line 2: 2 21976 74.0043 358.2354 0051302 261.6554 109.2588 12.55733601537039

Live tracking on map

Real-time ground track for satellite COSMOS 2187.

In-orbit conjunctions

A list of the most updated potential collisions computed for object COSMOS 2187.

Target Orbit TCA Probability of collision Miss distance Type
DELTA 1 DEB SSO 2025-02-18 16:58:46 0.00128612 118.0 (m) DEBRIS

Associated space launch

Military communications satellites

COSMOS 2187 was lifted into orbit during the mission ‘Kosmos-3M | Strela-1M 361-368’, on board a Kosmos-3M space rocket.

The launch took place on June 3, 1992, 12:50 a.m. from 133/3 (133L).

For more information about the launch, click the button.

Launch to space Kosmos-3M | Strela-1M 361-368
Kosmos-3M | Strela-1M 361-368

Agency: N/A

Status: Launch Successful

Launch date: June 3, 1992, 12:50 a.m. UTC

Rocket: Kosmos-3M

Launch pad: 133/3 (133L)

Location: Plesetsk Cosmodrome, Russian Federation

...

Latest news about this satellite

There are no fresh news available about this satellite. Check back as we update our databases every day.


Newsletter sign-up

Weekly statistics, charts and insights to help you stay on top of the space industry.